GW7255 Weather Reports


time (UTC)temp
C
wind
direction
speed
KPH
gust
KPH
rain 1hr
cm
rain 24hr
cm
rain mn
cm
humidity
%
barometer
mb
20260906211514 33 119 30.6 51.5 0.00 0.00 0.00 31 1002.4
20260906210008 33 360 37.0 51.5 0.00 0.00 0.00 29 1002.6
20260906204551 34 147 32.2 49.9 0.00 0.00 0.00 29 1002.7
20260906203013 34 360 37.0 53.1 0.00 0.00 0.00 29 1002.6
20260906201520 34 360 32.2 45.1 0.00 0.00 0.00 29 1002.8
20260906200022 33 117 29.0 43.5 0.00 0.00 0.00 30 1002.8
20260906194513 33 103 29.0 37.0 0.00 0.00 0.00 31 1003.0
20260906193102 35 360 32.2 40.2 0.00 0.00 0.00 29 1002.9
20260906191520 35 360 19.3 32.2 0.00 0.00 0.00 28 1002.8
20260906190019 35 136 19.3 32.2 0.00 0.00 0.00 28 1003.0
20260906184504 35 360 12.9 30.6 0.00 0.00 0.00 28 1003.1
20260906183054 35 82 12.9 24.1 0.00 0.00 0.00 27 1003.4
20260906181519 35 93 14.5 25.7 0.00 0.00 0.00 27 1003.6
20260906180106 35 360 14.5 19.3 0.00 0.00 0.00 29 1003.8
20260906174510 33 55 4.8 11.3 0.00 0.00 0.00 31 1004.0
20260906173035 33 58 11.3 19.3 0.00 0.00 0.00 33 1004.2
20260906171516 32 47 11.3 17.7 0.00 0.00 0.00 34 1004.6
20260906170115 31 15 4.8 19.3 0.00 0.00 0.00 36 1004.8
20260906164519 31 71 14.5 19.3 0.00 0.00 0.00 36 1004.9
20260906163110 31 53 11.3 24.1 0.00 0.00 0.00 36 1005.1
20260906161524 30 55 4.8 16.1 0.00 0.00 0.00 38 1005.2
20260906160100 30 70 6.4 14.5 0.00 0.00 0.00 39 1005.4
20260906160001 30 40 4.8 12.9 0.00 0.00 0.00 39 1005.4
20260906154520 30 33 4.8 14.5 0.00 0.00 0.00 40 1005.3
20260906153003 29 138 1.6 8.0 0.00 0.00 0.00 41 1005.4
20260906151518 28 144 4.8 8.0 0.00 0.00 0.00 43 1005.2
20260906150003 27 142 0.0 6.4 0.00 0.00 0.00 45 1005.4
20260906144526 26 71 0.0 6.4 0.00 0.00 0.00 46 1005.6
20260906143007 25 63 0.0 4.8 0.00 0.00 0.00 49 1005.7
20260906141517 23 66 1.6 6.4 0.00 0.00 0.00 51 1005.8
20260906134513 20 65 0.0 4.8 0.00 0.00 0.00 70 1005.8
20260906133117 18 360 0.0 0.0 0.00 0.00 0.00 70 1005.8
20260906131520 18 59 0.0 0.0 0.00 0.00 0.00 70 1005.8
20260906130032 18 59 0.0 6.4 0.00 0.00 0.00 70 1005.7
20260906124510 17 60 0.0 4.8 0.00 0.00 0.00 71 1005.3
20260906123133 17 59 0.0 1.6 0.00 0.00 0.00 72 1005.2
20260906121518 17 59 3.2 9.7 0.00 0.00 0.00 71 1005.3
20260906120058 18 140 4.8 6.4 0.00 0.00 0.00 67 1005.0
20260906114535 18 140 3.2 4.8 0.00 0.00 0.00 69 1004.9
20260906113006 18 138 4.8 6.4 0.00 0.00 0.00 66 1004.7
20260906111528 19 137 3.2 6.4 0.00 0.00 0.00 67 1004.9
20260906104517 18 130 3.2 6.4 0.00 0.00 0.00 72 1004.9
20260906103058 18 130 1.6 6.4 0.00 0.00 0.00 69 1004.9
20260906101522 18 129 3.2 6.4 0.00 0.00 0.00 69 1004.8
20260906100035 18 130 0.0 6.4 0.00 0.00 0.00 69 1004.7
20260906094509 18 125 3.2 6.4 0.00 0.00 0.00 66 1004.5
20260906093134 19 360 0.0 9.7 0.00 0.00 0.00 65 1004.5
20260906091523 18 278 11.3 17.7 0.00 0.00 0.00 67 1004.2
20260906090014 20 111 0.0 3.2 0.00 0.00 0.00 66 1004.2
20260906084510 20 109 0.0 4.8 0.00 0.00 0.00 65 1003.8
20260906083053 20 360 0.0 4.8 0.00 0.00 0.00 64 1004.3
20260906081519 20 107 0.0 1.6 0.00 0.00 0.00 64 1004.6
20260906080100 20 109 0.0 3.2 0.00 0.00 0.00 62 1004.5
20260906074517 20 360 6.4 17.7 0.00 0.00 0.00 59 1004.6
20260906073001 21 360 1.6 4.8 0.00 0.00 0.00 59 1004.3
20260906071519 21 360 0.0 3.2 0.00 0.00 0.00 54 1004.6
20260906070006 21 360 1.6 4.8 0.00 0.00 0.00 56 1004.4
20260906064533 21 360 1.6 4.8 0.00 0.00 0.00 56 1004.3
20260906063057 22 360 4.8 8.0 0.00 0.00 0.00 53 1004.5
20260906061520 22 360 0.0 0.0 0.00 0.00 0.00 53 1004.4
20260906060028 22 360 4.8 8.0 0.00 0.00 0.00 52 1004.5
20260906054511 23 153 4.8 14.5 0.00 0.00 0.00 51 1004.6
20260906053100 23 360 11.3 16.1 0.00 0.00 0.00 51 1004.9
20260906051517 22 159 8.0 12.9 0.00 0.00 0.00 52 1005.0
20260906050023 23 145 8.0 11.3 0.00 0.00 0.00 49 1004.7
20260906044505 24 105 8.0 11.3 0.00 0.00 0.00 49 1004.7
20260906043050 24 88 6.4 17.7 0.00 0.00 0.00 50 1004.8
20260906041516 24 360 16.1 30.6 0.00 0.00 0.00 47 1004.9
20260906040003 25 360 6.4 14.5 0.00 0.00 0.00 44 1004.8
20260906034526 26 360 8.0 12.9 0.00 0.00 0.00 44 1004.7
20260906033104 26 360 11.3 14.5 0.00 0.00 0.00 42 1004.6
20260906031515 27 360 8.0 12.9 0.00 0.00 0.00 40 1004.7
20260906024523 28 155 6.4 12.9 0.00 0.00 0.00 37 1004.1
20260906023003 28 148 6.4 12.9 0.00 0.00 0.00 35 1003.8
20260906021528 29 360 8.0 16.1 0.00 0.00 0.00 34 1003.7
20260906014513 29 360 9.7 14.5 0.00 0.00 0.00 31 1003.7
20260906013101 30 156 11.3 22.5 0.00 0.00 0.00 30 1003.7
20260906011518 30 360 16.1 24.1 0.00 0.00 0.00 30 1003.7
20260906010059 31 360 16.1 20.9 0.00 0.00 0.00 30 1003.6
20260906004521 31 360 16.1 22.5 0.00 0.00 0.00 28 1003.7
20260906003028 32 145 12.9 24.1 0.00 0.00 0.00 27 1003.7
20260906001556 32 360 16.1 32.2 0.00 0.00 0.00 26 1003.6
20260906000007 32 360 22.5 27.4 0.00 0.00 0.00 27 1003.2
20260905234528 32 360 19.3 25.7 0.00 0.00 0.00 28 1003.2
20260905233100 33 360 14.5 27.4 0.00 0.00 0.00 27 1003.2
20260905231520 33 360 17.7 22.5 0.00 0.00 0.00 25 1003.1
20260905230029 34 360 17.7 30.6 0.00 0.00 0.00 24 1002.9
20260905224615 34 130 19.3 27.4 0.00 0.00 0.00 24 1002.8
20260905223021 33 360 22.5 25.7 0.00 0.00 0.00 25 1002.7
20260905221515 34 360 17.7 35.4 0.00 0.00 0.00 24 1002.6
20260905220012 35 360 25.7 38.6 0.00 0.00 0.00 24 1002.4
20260905214544 35 72 17.7 27.4 0.00 0.00 0.00 23 1002.8
20260905213103 35 67 17.7 27.4 0.00 0.00 0.00 22 1002.7